Wind_Speed
12 8 8 6 4 4 3 3 5 5 5 3 3 4 6 3 1 2 3 2 1 1 3 1 8 10 10 14 17 21 26 29 29 30 32 33 34 32 27 27 30 32 33 33 33 32 32 30 30 31 31 30 30 28 25 24 26 26 24 24 24 23 23
7 9 9 7 7 8 3 1 2 4 4 3 2 1 4 4 2 2 5 7 3 2 0 2 7 9 10 11 13 18 23 26 28 30 32 35 37 35 31 28 26 30 34 36 34 33 34 33 32 30 28 28 29 27 25 23 25 27 25 24 24 23 23
0 6 5 3 7 10 4 2 4 1 2 2 1 1 2 2 2 2 4 5 3 1 0 4 7 9 10 11 11 14 18 23 26 28 31 34 35 35 34 30 26 25 31 37 36 34 35 35 33 30 28 28 29 27 24 22 24 26 26 25 24 23 23
9 2 2 3 4 7 3 3 6 3 3 4 4 3 2 2 2 0 3 3 1 2 4 3 6 7 9 10 10 10 14 21 23 24 27 31 34 35 34 32 29 24 28 36 37 35 36 35 32 29 29 30 29 27 25 23 23 26 26 25 25 24 23
8 4 4 5 5 6 3 1 4 5 2 2 4 3 3 3 3 2 2 0 1 1 5 4 1 3 5 7 8 8 13 20 22 23 26 28 31 34 32 31 29 24 25 34 37 35 35 34 30 29 29 30 30 27 25 23 24 26 27 26 25 24 23
6 6 9 11 9 9 6 2 4 6 3 1 2 2 3 3 3 3 4 3 1 2 4 5 5 3 5 6 4 4 12 17 18 21 24 26 28 30 31 30 29 24 23 29 34 34 34 33 31 30 30 30 29 27 24 23 23 26 27 26 25 24 23
5 8 13 14 12 11 9 5 5 6 4 3 3 2 5 4 4 5 3 5 1 2 3 4 5 5 9 12 11 5 5 8 9 12 15 21 25 24 24 25 26 25 22 24 30 31 32 34 33 31 31 30 28 26 24 23 23 24 25 26 24 23 22
4 8 11 13 10 8 7 7 7 5 4 4 3 3 3 1 2 3 2 3 1 2 4 5 6 8 10 13 14 11 7 5 3 5 3 7 16 19 21 22 25 28 27 27 29 28 27 32 33 32 32 30 27 26 25 24 25 23 23 25 25 22 21
5 6 8 9 9 8 5 7 11 8 6 9 9 5 1 4 4 3 5 1 2 1 4 7 6 7 8 12 14 12 13 13 7 4 1 4 13 19 23 23 22 26 31 32 32 29 28 32 33 32 33 31 28 28 27 26 26 23 22 25 26 23 20
2 2 3 4 5 6 5 8 11 8 9 12 8 3 3 4 4 5 5 2 0 1 3 6 5 4 5 8 9 9 13 14 9 6 8 10 13 17 21 21 19 22 29 33 32 29 30 33 33 32 32 31 30 30 29 28 27 24 23 24 25 23 21
3 5 5 7 7 6 7 11 12 9 11 14 9 3 3 2 4 5 4 7 5 1 3 5 5 4 4 4 4 7 11 13 9 5 8 10 10 12 17 20 20 22 26 31 32 29 30 33 34 33 32 32 31 30 29 30 29 27 26 25 22 21 22
6 8 8 9 9 7 9 12 12 9 9 11 9 7 8 5 6 4 2 6 8 4 2 4 6 3 1 4 8 10 11 9 7 4 2 6 8 9 12 15 20 22 22 24 26 27 29 31 31 31 32 32 30 29 30 32 32 29 28 27 24 21 22
8 6 7 8 6 6 9 11 11 11 10 10 8 9 12 11 8 3 3 5 10 6 2 4 6 5 4 9 11 10 9 7 5 7 8 6 7 6 9 14 20 21 18 17 17 20 26 30 30 31 33 32 31 29 29 31 32 30 29 29 28 24 22
10 9 9 6 5 3 7 9 10 13 13 14 12 11 12 11 11 8 5 9 12 8 4 4 8 10 10 12 11 10 12 12 8 6 7 8 5 2 5 10 19 21 17 14 13 15 19 24 27 28 28 30 30 30 29 28 30 31 29 28 29 27 24
6 9 10 7 4 5 3 5 10 13 13 14 14 12 11 10 10 11 10 8 7 6 8 7 4 10 14 14 14 12 10 10 8 6 4 6 4 1 1 1 8 15 14 13 14 14 14 18 22 23 22 22 22 24 26 26 27 29 29 28 28 27 25
4 8 8 8 6 2 3 6 10 11 10 10 10 9 9 8 8 9 10 6 3 4 7 11 11 11 11 11 14 13 7 7 7 7 7 5 6 7 6 5 4 3 10 12 11 11 14 17 21 23 21 18 15 17 21 22 23 25 27 27 26 26 26
4 7 8 7 4 3 4 2 4 7 8 7 8 8 9 9 7 5 5 2 2 3 6 10 11 11 10 9 10 11 10 9 11 12 14 15 15 16 14 11 11 8 7 10 6 6 10 13 16 18 18 14 10 11 15 17 18 20 20 19 18 18 20
3 7 8 6 3 4 1 3 1 5 5 8 10 9 9 10 7 4 3 2 2 5 8 9 11 12 11 14 15 11 8 9 13 15 16 16 15 17 18 17 17 16 10 5 5 5 6 8 9 12 14 14 11 10 11 14 16 17 17 15 14 14 16
2 5 6 4 3 1 1 4 4 5 7 11 12 10 10 11 9 7 6 6 6 8 10 11 12 14 15 19 22 20 15 14 18 17 16 14 13 15 17 17 17 19 16 9 6 6 5 4 6 8 11 13 13 11 11 13 14 16 18 19 19 20 21
0 2 3 1 2 3 4 6 8 9 7 7 7 8 10 11 9 8 7 9 10 9 8 9 11 13 17 21 23 23 20 19 22 23 20 17 16 17 19 19 18 19 19 16 13 12 11 8 6 4 3 4 6 6 6 6 6 9 14 18 20 21 22
0 2 1 2 2 3 5 5 7 9 8 5 3 6 6 10 12 11 9 9 12 11 7 6 6 8 12 15 19 21 19 19 22 23 22 20 20 19 19 20 20 19 19 20 19 19 19 17 16 14 11 8 6 6 5 3 3 5 10 14 16 17 17
0 1 0 2 3 1 3 4 9 12 12 11 6 6 2 9 14 16 11 8 10 12 9 6 4 5 6 6 10 17 18 19 20 22 22 22 22 19 17 16 16 16 16 16 16 17 20 20 18 17 17 16 15 14 14 12 11 10 8 8 9 9 10
2 2 1 2 2 2 4 6 10 12 15 13 8 5 2 7 12 16 12 9 9 10 10 9 8 7 5 2 4 11 17 17 18 21 24 24 22 20 19 17 15 14 15 15 14 14 17 18 18 18 20 20 19 18 17 15 15 14 11 8 8 7 5
4 0 1 2 2 1 3 5 8 12 14 11 6 4 1 6 11 14 11 9 8 9 11 10 7 4 4 7 8 11 16 17 17 18 21 22 20 18 17 17 16 16 16 16 16 16 17 17 18 18 18 19 19 18 15 13 14 13 12 10 10 10 9
3 3 3 2 2 1 5 6 11 15 11 5 5 1 3 4 10 11 9 6 7 9 10 9 6 4 9 16 18 16 17 18 18 18 18 18 17 15 14 14 15 15 16 15 15 15 14 14 15 15 14 15 18 18 16 14 13 12 11 9 9 9 10
2 3 3 2 2 3 8 8 15 16 6 1 4 2 2 7 9 8 7 5 7 10 11 11 12 14 17 20 20 16 14 16 17 17 17 17 16 14 13 12 11 12 13 12 11 10 9 8 10 12 12 14 18 19 19 17 15 12 10 9 8 8 9
1 2 4 2 1 5 9 9 10 11 5 4 4 7 11 11 8 7 7 5 7 12 13 13 15 19 19 19 19 17 15 14 14 14 16 17 17 15 13 12 10 9 10 11 12 11 9 7 7 7 7 9 12 14 17 17 15 13 12 10 9 9 9
1 2 2 2 4 7 13 11 6 6 9 10 10 12 13 9 7 7 7 6 7 10 13 14 14 17 17 16 16 16 15 15 14 14 15 16 16 16 15 14 12 11 10 11 13 13 12 10 8 6 4 5 6 9 11 13 13 14 14 13 12 10 9
3 3 3 6 10 12 13 14 14 15 16 15 14 15 14 10 7 6 6 7 7 8 11 13 14 14 14 14 14 14 15 15 15 15 16 16 16 15 15 14 13 12 12 12 12 13 13 11 9 8 6 5 5 6 8 8 9 11 13 14 14 12 9
5 7 8 11 14 14 13 15 17 17 16 14 14 15 14 11 7 6 6 7 7 8 10 11 12 13 13 14 13 13 14 15 15 15 16 15 14 13 12 10 9 9 8 8 8 10 12 12 12 11 8 6 5 5 6 6 5 5 6 9 10 11 10
4 4 4 9 13 12 12 13 14 14 15 14 13 12 12 10 8 8 8 7 6 7 8 9 11 13 14 14 14 14 14 13 13 14 13 12 9 9 8 7 6 5 4 3 5 6 7 9 9 10 10 9 8 7 5 4 4 4 3 4 6 8 9
4 3 4 11 17 14 10 11 12 12 12 12 11 11 11 10 9 8 8 8 6 4 5 6 9 13 15 14 14 14 13 12 13 12 12 11 10 8 7 5 4 4 3 2 3 4 5 5 5 5 6 6 7 7 5 3 3 3 3 4 4 5 7
4 4 5 10 14 12 9 11 11 10 10 9 9 9 9 10 9 7 7 8 6 4 5 6 7 10 12 14 14 13 12 12 12 11 11 11 10 8 5 3 2 2 2 2 3 3 3 3 3 3 3 2 3 4 5 4 4 4 3 4 4 4 6
2 3 4 6 7 6 7 9 9 8 8 8 8 9 10 9 8 7 7 7 5 5 7 7 6 6 8 11 14 12 11 12 13 11 11 11 10 9 6 4 4 4 3 2 2 2 2 3 3 3 2 1 2 3 2 3 5 6 6 5 5 6 8
4 6 8 9 9 8 8 8 7 7 7 7 8 9 8 8 7 7 7 6 5 5 6 5 5 6 6 8 12 13 12 12 11 9 9 9 9 9 7 6 6 6 5 3 2 2 1 1 2 2 2 1 2 2 3 4 6 6 6 5 5 8 11
8 10 11 9 7 8 10 10 8 7 8 8 9 8 7 7 7 6 6 5 6 5 3 2 4 7 7 7 10 12 12 12 12 10 8 9 9 8 8 8 8 8 7 5 3 2 2 1 1 1 1 2 3 3 4 6 8 8 8 5 3 7 12
11 12 11 8 6 8 11 11 9 8 8 8 8 7 6 6 5 4 4 4 5 5 2 1 2 6 8 8 10 10 10 11 13 12 11 12 11 10 10 12 12 12 11 9 7 5 5 4 2 1 2 2 4 4 4 6 9 11 11 8 4 4 9
Wind_Direction
177 193 232 226 220 256 266 184 159 200 225 250 266 274 303 304 253 245 132 90 359 67 360 50 146 163 167 162 170 175 182 188 189 195 203 206 211 212 200 190 195 199 197 195 194 195 193 190 189 191 195 198 200 202 200 198 193 191 191 190 190 191 189
172 177 228 245 230 241 260 151 192 211 220 289 293 284 327 328 277 242 131 132 166 156 320 232 169 162 164 163 170 176 180 185 189 195 200 204 209 209 202 197 198 199 197 195 196 197 194 190 189 190 194 197 199 202 202 201 197 192 192 192 191 192 192
44 181 211 264 262 260 269 358 322 275 165 260 233 154 285 279 283 325 75 108 140 111 182 202 182 163 159 164 170 174 179 184 189 194 198 201 204 205 204 205 203 199 198 196 194 194 191 188 188 191 195 196 197 200 201 202 200 196 194 193 192 194 195
342 304 66 49 303 293 312 343 312 275 184 195 186 177 203 216 247 313 31 6 350 348 326 247 196 174 157 164 172 174 179 183 186 189 194 197 199 201 204 206 205 200 195 194 192 191 190 187 187 192 196 196 195 197 199 201 201 198 196 195 195 195 196
339 347 6 344 329 322 292 219 269 266 262 184 181 204 198 199 245 184 124 287 223 326 327 334 311 173 153 158 166 168 178 183 188 191 193 196 198 201 203 204 206 203 193 190 191 192 190 186 188 194 195 193 193 194 197 202 201 198 196 196 197 198 197
329 339 332 319 319 313 286 210 222 244 261 193 174 254 233 203 235 216 145 140 174 336 335 344 357 23 43 48 73 160 180 181 186 191 194 197 198 200 204 206 208 205 193 186 187 190 189 185 189 194 192 189 190 191 196 201 201 198 196 194 198 201 198
318 327 320 309 305 308 305 300 255 228 235 231 160 183 235 219 233 235 154 122 162 333 345 329 335 18 40 38 32 39 162 171 177 179 187 197 199 196 196 202 207 203 191 181 181 184 186 186 190 192 188 186 189 192 196 199 199 199 195 192 196 201 199
320 334 324 313 319 335 332 315 294 256 256 276 237 210 225 182 280 260 106 91 274 328 332 314 335 12 37 44 36 38 53 57 130 156 144 183 193 196 197 203 207 202 196 188 182 183 187 189 190 190 186 186 191 195 196 196 197 200 195 190 196 202 201
345 349 336 331 345 1 352 314 310 306 322 319 294 276 19 41 1 38 91 95 278 334 320 318 350 18 35 38 31 37 45 41 64 136 168 175 184 197 203 207 208 202 198 195 187 187 193 193 190 188 187 188 192 194 194 193 196 199 193 191 199 206 203
341 305 296 308 318 330 315 309 321 341 7 353 323 299 64 53 13 36 86 133 187 40 330 327 351 24 39 36 31 44 54 54 73 143 182 172 172 185 190 194 200 198 197 196 190 187 192 193 190 187 188 190 191 192 192 191 195 196 191 193 203 209 205
217 207 224 252 262 285 306 312 328 359 15 3 353 17 51 99 84 46 85 132 126 67 334 322 326 353 23 22 23 43 53 62 83 148 177 152 145 177 189 194 199 195 194 197 195 192 192 193 192 191 192 194 194 194 194 192 193 193 191 193 200 203 202
229 210 212 243 270 304 315 312 327 356 11 358 359 23 21 38 74 35 343 130 123 135 217 278 294 300 47 30 23 38 46 51 62 61 90 124 132 169 187 187 188 187 189 194 195 195 194 192 191 191 192 194 195 196 195 194 193 193 193 194 195 194 196
289 265 238 238 258 307 313 308 327 352 2 355 0 31 35 43 68 51 326 49 74 90 183 256 273 292 30 34 17 27 51 48 33 30 28 58 103 157 191 189 185 183 185 189 188 186 189 191 194 196 196 196 196 195 197 197 196 195 195 196 198 196 196
307 308 294 259 211 239 295 308 339 356 7 17 22 33 42 51 67 77 60 46 55 60 26 320 284 306 3 32 17 19 52 57 44 27 8 18 56 145 209 198 191 187 180 174 173 171 173 178 184 190 192 195 197 198 199 199 198 197 196 198 201 201 200
303 299 298 287 230 199 253 334 2 2 13 35 35 25 28 39 52 69 73 54 40 46 49 50 9 346 4 17 9 12 54 77 76 74 36 356 1 351 344 140 189 198 189 166 162 168 166 161 166 173 179 183 188 193 195 195 197 199 200 202 204 206 208
304 289 289 282 264 194 94 31 16 6 13 49 55 37 31 35 45 60 64 54 345 354 54 83 78 49 29 6 346 344 15 66 78 77 77 70 57 49 45 60 81 184 201 187 177 182 178 166 167 176 183 184 183 187 189 190 195 200 204 207 208 210 214
293 295 302 295 287 103 96 25 24 24 18 47 72 64 48 42 49 62 61 85 244 348 48 83 80 63 49 23 354 335 348 38 68 73 76 85 85 77 74 73 69 82 177 197 193 185 179 170 171 181 190 197 205 202 195 196 202 205 207 210 211 212 214
289 302 314 328 13 89 155 267 84 78 51 57 66 59 48 44 52 90 113 140 125 58 60 75 76 68 52 38 36 24 10 51 74 74 70 72 75 78 78 73 68 71 89 126 115 116 157 184 195 199 205 218 235 230 211 211 214 214 217 223 229 231 227
300 318 337 4 26 55 297 323 14 53 76 87 81 59 42 40 42 54 67 75 85 82 74 73 77 73 56 46 50 54 58 64 64 64 66 64 61 64 66 68 69 66 67 79 91 87 101 174 207 209 209 220 230 226 213 213 213 210 215 223 230 234 235
237 6 10 14 248 308 351 11 10 18 42 78 82 56 29 20 28 39 45 57 70 77 73 73 84 79 59 48 50 59 73 78 71 70 73 75 72 65 60 63 66 63 64 72 80 80 79 89 100 103 140 198 215 212 207 216 209 194 201 210 216 220 225
143 114 115 147 138 337 351 8 348 350 3 2 54 87 29 356 19 42 46 55 69 79 77 63 69 70 59 46 39 47 69 85 84 83 85 87 84 74 67 70 72 70 68 68 71 74 75 76 78 74 73 81 94 103 107 101 105 145 182 199 207 212 216
343 124 161 96 105 275 301 313 315 336 1 360 23 98 46 344 26 51 56 61 79 93 96 88 75 60 60 49 25 34 59 82 90 91 95 99 97 88 83 85 85 86 84 77 75 77 73 72 74 75 75 75 78 85 93 97 103 118 149 182 195 206 216
256 183 153 96 122 222 253 274 301 343 5 354 360 72 17 340 32 57 60 61 81 101 109 113 115 96 76 71 23 46 69 85 95 98 99 102 103 98 96 98 97 98 98 96 97 95 86 83 85 86 84 78 74 79 87 94 103 112 117 119 124 133 134
274 285 88 83 96 235 267 277 316 349 354 350 15 71 344 355 37 57 61 61 81 110 123 118 109 112 144 155 144 113 100 95 96 105 109 108 106 105 105 105 105 109 112 108 99 91 88 92 98 99 96 87 79 77 82 91 100 107 108 105 105 113 109
354 46 64 86 105 314 288 313 354 350 333 356 57 143 248 22 51 60 61 66 85 108 124 122 108 127 147 146 144 136 121 111 107 113 120 118 116 118 120 119 118 116 115 112 102 91 86 92 96 95 95 92 85 79 77 82 89 97 103 105 104 108 112
16 79 87 112 109 344 321 352 22 15 352 100 87 122 122 79 74 70 61 71 91 99 111 121 123 127 132 138 144 144 136 130 127 127 129 126 122 124 128 130 128 117 106 102 100 94 90 96 98 95 93 93 90 86 80 75 75 86 101 110 108 103 105
4 84 72 103 151 7 16 36 34 24 43 139 121 93 89 80 72 68 65 72 94 104 112 123 133 137 136 139 146 148 146 146 144 140 140 135 128 125 127 130 130 120 107 98 93 91 90 96 105 106 98 92 90 89 88 85 81 83 90 99 105 107 109
43 77 55 126 131 61 52 66 81 69 78 89 87 88 90 82 61 57 68 78 96 114 123 130 140 145 143 144 148 149 149 150 148 145 146 141 131 122 117 119 121 118 110 102 97 97 98 100 107 111 106 101 96 88 89 95 94 88 84 83 84 88 103
71 107 141 133 115 94 72 71 79 82 80 79 81 83 87 89 75 55 68 92 108 118 124 135 146 152 153 152 150 150 150 148 146 146 144 138 130 122 114 112 110 106 101 96 91 89 87 85 89 95 99 111 114 104 102 106 103 93 89 88 83 77 79
70 85 115 123 112 101 90 80 76 77 78 80 84 82 82 88 85 65 76 109 126 125 131 145 154 159 162 158 153 155 154 150 150 150 146 140 132 124 117 111 105 101 99 94 90 85 80 75 73 74 78 80 79 94 111 116 108 98 98 98 94 87 81
94 75 93 107 102 96 93 89 84 82 80 79 83 85 83 86 85 78 86 111 132 137 149 162 164 166 168 163 158 159 159 160 165 163 156 154 148 136 127 116 107 106 104 99 99 92 87 86 82 76 76 71 63 67 81 90 96 108 119 114 108 103 99
102 101 80 93 97 99 103 102 97 94 91 87 85 87 87 86 86 84 93 109 125 140 151 157 165 174 178 172 163 162 165 170 175 176 173 169 162 156 150 134 114 108 98 85 90 92 96 105 110 107 97 82 74 76 83 98 114 115 108 109 124 136 131
96 101 96 97 96 89 91 102 103 101 102 98 89 90 93 94 92 87 92 106 119 128 130 141 159 174 183 184 175 170 172 177 180 185 186 179 173 174 175 168 161 148 117 78 64 67 76 87 100 119 131 125 113 105 104 122 145 162 155 123 126 145 143
142 139 119 110 110 108 107 111 111 108 113 117 109 99 96 98 99 93 87 93 110 125 129 142 158 164 176 186 182 177 181 188 193 200 201 196 195 200 201 201 204 195 174 140 105 75 51 44 49 52 53 132 180 168 143 135 143 157 163 144 132 145 148
156 157 139 121 123 138 144 138 129 118 119 128 124 110 99 100 104 102 91 80 82 112 130 147 173 184 186 185 185 186 188 193 201 211 215 213 213 213 217 224 224 219 218 213 182 144 107 73 65 54 45 73 181 182 170 160 151 156 168 160 137 144 155
144 156 151 139 137 148 153 155 153 140 127 127 128 123 117 113 109 109 115 103 89 103 139 157 172 185 189 189 196 201 201 203 210 214 213 217 221 220 223 233 240 239 239 241 238 228 232 231 154 134 126 149 176 185 177 170 170 175 188 202 180 154 163
151 157 152 141 142 153 154 158 161 153 144 141 138 133 135 142 137 126 132 126 102 94 90 77 152 176 184 189 203 214 216 217 220 218 215 219 227 232 235 242 253 257 252 251 259 268 275 283 281 216 188 171 170 178 177 175 182 188 194 207 220 183 172
Height
1468 1473 1472 1469 1480 1488 1483 1480 1488 1487 1479 1486 1500 1503 1492 1491 1505 1503 1498 1507 1503 1495 1495 1487 1485 1491 1489 1491 1495 1496 1500 1503 1506 1509 1511 1513 1515 1516 1519 1521 1524 1527 1529 1531 1534 1537 1539 1542 1544 1545 1547 1549 1551 1553 1555 1558 1560 1562 1564 1565 1567 1569 1571
1469 1467 1471 1469 1470 1477 1482 1488 1485 1477 1478 1484 1494 1507 1506 1505 1514 1502 1495 1510 1511 1508 1508 1494 1488 1492 1491 1491 1493 1494 1498 1500 1503 1505 1508 1511 1513 1515 1518 1519 1522 1524 1526 1529 1531 1534 1537 1539 1542 1543 1545 1547 1549 1551 1553 1556 1558 1560 1562 1564 1566 1568 1569
1474 1465 1472 1477 1472 1469 1475 1481 1476 1479 1495 1498 1496 1507 1514 1516 1517 1508 1506 1513 1509 1509 1508 1496 1492 1493 1491 1491 1491 1493 1495 1496 1500 1502 1505 1509 1511 1514 1516 1517 1520 1522 1524 1526 1528 1531 1534 1537 1540 1542 1543 1546 1548 1550 1552 1554 1556 1558 1561 1563 1564 1566 1568
1478 1472 1477 1487 1484 1474 1471 1476 1476 1478 1488 1493 1492 1496 1501 1509 1515 1517 1526 1530 1519 1512 1505 1496 1495 1492 1490 1492 1490 1491 1493 1494 1498 1500 1503 1507 1509 1511 1514 1516 1518 1520 1522 1524 1526 1530 1532 1535 1539 1540 1542 1544 1546 1549 1551 1552 1555 1557 1559 1561 1563 1565 1566
1484 1487 1486 1488 1490 1485 1481 1484 1486 1484 1481 1481 1486 1488 1486 1495 1506 1510 1523 1535 1527 1513 1503 1497 1494 1491 1490 1491 1491 1492 1493 1494 1497 1500 1502 1505 1507 1510 1512 1514 1517 1519 1521 1523 1525 1528 1530 1534 1538 1539 1540 1542 1544 1547 1549 1551 1553 1555 1557 1559 1561 1563 1565
1494 1493 1485 1481 1483 1485 1484 1485 1484 1483 1483 1484 1493 1499 1487 1483 1493 1495 1506 1528 1527 1509 1501 1498 1493 1491 1491 1492 1493 1494 1495 1496 1498 1500 1502 1504 1506 1509 1511 1514 1517 1519 1521 1522 1524 1527 1529 1532 1536 1537 1538 1540 1542 1545 1547 1550 1552 1553 1555 1557 1559 1562 1563
1497 1492 1481 1477 1478 1477 1477 1479 1477 1475 1479 1482 1493 1501 1491 1482 1485 1480 1489 1519 1525 1506 1499 1498 1493 1492 1493 1494 1496 1496 1497 1499 1499 1500 1503 1505 1507 1509 1511 1513 1514 1517 1521 1522 1523 1526 1528 1530 1533 1536 1537 1539 1541 1543 1546 1548 1550 1552 1554 1556 1558 1560 1562
1494 1489 1482 1476 1475 1476 1481 1482 1476 1472 1475 1475 1478 1483 1481 1483 1489 1483 1492 1521 1523 1506 1499 1497 1494 1495 1496 1496 1498 1499 1501 1501 1500 1502 1503 1505 1508 1509 1511 1512 1512 1516 1520 1521 1522 1526 1529 1530 1531 1533 1535 1537 1540 1542 1544 1546 1548 1551 1553 1555 1557 1559 1561
1513 1507 1501 1493 1486 1486 1491 1490 1481 1475 1473 1473 1474 1475 1476 1488 1496 1491 1504 1527 1523 1507 1502 1498 1495 1497 1497 1498 1499 1500 1502 1502 1501 1502 1503 1505 1508 1509 1511 1512 1513 1515 1519 1520 1521 1524 1527 1528 1529 1531 1533 1536 1538 1540 1542 1545 1547 1550 1552 1554 1555 1557 1559
1534 1532 1525 1516 1506 1498 1496 1493 1487 1481 1478 1480 1482 1481 1484 1499 1504 1497 1508 1525 1520 1509 1504 1500 1497 1498 1498 1499 1500 1501 1502 1503 1503 1502 1503 1505 1506 1508 1510 1511 1514 1516 1519 1521 1521 1522 1525 1525 1527 1529 1532 1534 1537 1539 1541 1543 1545 1548 1551 1553 1554 1556 1558
1523 1525 1519 1509 1505 1503 1499 1496 1490 1484 1482 1482 1484 1487 1492 1499 1504 1505 1508 1513 1515 1514 1509 1503 1499 1498 1499 1501 1502 1502 1502 1503 1505 1504 1505 1506 1507 1509 1510 1510 1513 1515 1517 1520 1521 1522 1523 1524 1526 1528 1530 1533 1535 1537 1539 1541 1544 1547 1549 1552 1554 1556 1558
1506 1506 1505 1500 1499 1501 1500 1497 1492 1487 1485 1483 1486 1495 1497 1494 1505 1518 1511 1502 1511 1517 1510 1505 1501 1498 1500 1504 1505 1506 1505 1504 1506 1507 1507 1508 1508 1509 1510 1511 1513 1515 1517 1519 1520 1521 1522 1523 1525 1526 1528 1531 1533 1535 1538 1540 1542 1545 1548 1550 1553 1555 1558
1501 1497 1498 1496 1497 1500 1499 1498 1495 1491 1489 1489 1491 1498 1498 1497 1512 1524 1514 1505 1514 1518 1511 1506 1502 1499 1502 1506 1507 1509 1509 1507 1506 1507 1509 1511 1510 1510 1509 1510 1512 1514 1517 1519 1521 1521 1521 1522 1523 1525 1527 1529 1530 1533 1536 1538 1540 1543 1546 1549 1551 1554 1556
1501 1497 1496 1493 1495 1500 1500 1498 1497 1495 1495 1496 1498 1501 1499 1501 1511 1515 1512 1514 1521 1522 1519 1512 1505 1505 1508 1509 1508 1509 1511 1512 1509 1508 1510 1512 1513 1512 1510 1509 1510 1512 1515 1517 1519 1520 1520 1521 1522 1524 1527 1529 1530 1532 1534 1537 1539 1541 1544 1548 1550 1553 1555
1506 1499 1495 1493 1494 1498 1500 1501 1500 1499 1501 1503 1505 1506 1504 1506 1512 1513 1515 1521 1522 1522 1523 1520 1515 1514 1513 1512 1511 1509 1510 1512 1512 1511 1512 1512 1514 1515 1515 1514 1513 1513 1515 1516 1516 1518 1520 1522 1524 1526 1529 1530 1531 1532 1533 1535 1538 1540 1543 1545 1548 1551 1553
1514 1502 1497 1496 1492 1493 1501 1507 1507 1505 1507 1509 1510 1512 1511 1513 1517 1519 1521 1526 1525 1522 1523 1525 1525 1523 1520 1517 1515 1511 1511 1512 1513 1514 1514 1515 1517 1518 1518 1518 1516 1515 1516 1517 1517 1519 1521 1523 1525 1528 1531 1531 1532 1532 1533 1535 1537 1539 1542 1544 1546 1549 1551
1517 1503 1498 1497 1495 1503 1515 1516 1511 1509 1509 1511 1513 1514 1514 1513 1516 1522 1526 1528 1526 1523 1522 1524 1526 1527 1526 1525 1520 1514 1513 1515 1516 1516 1516 1517 1519 1519 1521 1521 1519 1517 1517 1518 1520 1520 1521 1522 1524 1527 1529 1531 1532 1534 1535 1536 1537 1539 1542 1544 1546 1548 1550
1518 1507 1500 1500 1509 1523 1525 1514 1506 1507 1510 1514 1518 1519 1518 1516 1516 1520 1523 1523 1522 1523 1523 1523 1526 1527 1528 1529 1525 1519 1516 1518 1519 1517 1516 1517 1518 1519 1520 1520 1519 1519 1519 1521 1523 1523 1523 1524 1525 1527 1529 1531 1534 1535 1536 1536 1536 1538 1540 1542 1545 1547 1549
1517 1510 1508 1520 1531 1529 1518 1508 1505 1505 1508 1513 1517 1519 1518 1517 1517 1518 1520 1521 1523 1524 1524 1524 1526 1527 1528 1528 1527 1522 1520 1521 1521 1520 1519 1517 1518 1519 1520 1519 1519 1520 1522 1523 1524 1525 1526 1527 1527 1528 1530 1532 1533 1534 1534 1535 1535 1537 1539 1542 1544 1547 1550
1516 1518 1523 1535 1537 1524 1512 1511 1509 1506 1508 1511 1515 1522 1523 1518 1518 1519 1519 1522 1523 1524 1525 1525 1526 1528 1530 1530 1529 1526 1525 1524 1523 1523 1523 1521 1521 1521 1521 1521 1521 1522 1524 1524 1525 1526 1527 1528 1528 1529 1530 1531 1531 1531 1532 1533 1534 1536 1539 1541 1543 1545 1548
1516 1524 1527 1527 1531 1529 1521 1518 1515 1512 1513 1511 1514 1525 1528 1522 1519 1520 1521 1523 1525 1526 1527 1528 1528 1530 1532 1534 1532 1530 1530 1528 1526 1525 1526 1525 1524 1523 1523 1523 1524 1525 1527 1527 1527 1527 1527 1528 1528 1529 1530 1530 1529 1529 1530 1530 1532 1534 1536 1537 1539 1542 1544
1513 1521 1526 1526 1536 1541 1531 1523 1519 1514 1514 1511 1510 1521 1530 1526 1523 1524 1524 1525 1527 1527 1528 1529 1529 1530 1534 1538 1537 1534 1533 1533 1531 1529 1528 1527 1527 1528 1528 1528 1527 1528 1530 1530 1530 1530 1529 1529 1529 1530 1530 1529 1528 1528 1529 1529 1530 1532 1534 1536 1538 1540 1542
1515 1519 1527 1532 1539 1540 1530 1524 1519 1514 1516 1513 1510 1524 1537 1532 1526 1527 1526 1527 1528 1528 1528 1528 1527 1528 1535 1540 1539 1537 1536 1536 1534 1533 1532 1530 1531 1532 1532 1531 1531 1532 1533 1532 1532 1531 1531 1531 1531 1530 1530 1529 1528 1528 1529 1530 1531 1532 1534 1536 1539 1540 1541
1516 1518 1526 1533 1537 1534 1526 1522 1519 1516 1515 1512 1517 1539 1547 1534 1528 1530 1528 1527 1529 1528 1528 1528 1526 1527 1532 1534 1535 1535 1536 1536 1536 1535 1535 1534 1534 1534 1534 1533 1532 1532 1532 1532 1531 1532 1532 1533 1532 1531 1530 1529 1528 1529 1530 1531 1532 1533 1536 1538 1539 1540 1540
1517 1522 1531 1536 1535 1530 1523 1521 1519 1515 1514 1519 1534 1549 1545 1532 1531 1532 1528 1528 1530 1529 1528 1528 1527 1527 1528 1529 1532 1534 1534 1535 1535 1535 1535 1535 1535 1535 1535 1534 1533 1533 1532 1532 1531 1532 1532 1532 1531 1531 1530 1530 1530 1531 1532 1534 1536 1537 1538 1539 1540 1541 1541
1520 1523 1531 1537 1537 1529 1522 1521 1519 1514 1520 1534 1542 1540 1534 1532 1533 1531 1529 1530 1530 1529 1529 1528 1528 1529 1530 1531 1533 1534 1534 1535 1535 1535 1536 1536 1535 1536 1536 1536 1535 1535 1535 1535 1535 1535 1534 1534 1533 1533 1533 1533 1534 1535 1536 1537 1539 1540 1540 1540 1541 1542 1542
1521 1525 1533 1542 1543 1531 1521 1521 1521 1520 1527 1536 1535 1531 1531 1533 1531 1530 1531 1530 1530 1530 1531 1530 1530 1532 1532 1533 1534 1535 1535 1535 1535 1536 1536 1536 1536 1536 1536 1537 1537 1537 1537 1537 1537 1537 1537 1537 1536 1536 1536 1537 1538 1539 1539 1540 1541 1541 1541 1541 1542 1543 1543
1524 1532 1537 1538 1535 1528 1522 1523 1526 1526 1528 1530 1529 1530 1532 1531 1530 1531 1531 1530 1531 1532 1531 1531 1533 1534 1534 1536 1536 1536 1537 1536 1536 1537 1537 1537 1538 1538 1538 1538 1539 1539 1539 1539 1538 1538 1538 1538 1538 1538 1538 1539 1540 1541 1542 1542 1542 1542 1542 1542 1543 1543 1544
1521 1527 1529 1526 1524 1525 1525 1525 1526 1527 1528 1529 1529 1530 1530 1530 1532 1532 1530 1531 1532 1532 1532 1533 1534 1535 1536 1537 1538 1538 1539 1539 1538 1539 1538 1539 1539 1539 1539 1540 1540 1540 1540 1540 1539 1539 1538 1538 1538 1539 1539 1540 1541 1541 1542 1543 1543 1543 1543 1543 1542 1543 1544
1519 1521 1522 1522 1523 1525 1526 1527 1527 1528 1529 1530 1530 1530 1530 1531 1532 1531 1531 1532 1532 1532 1533 1534 1534 1536 1537 1538 1539 1540 1540 1540 1541 1541 1541 1541 1541 1540 1540 1540 1540 1541 1541 1541 1540 1539 1538 1538 1539 1539 1540 1541 1542 1542 1543 1543 1543 1543 1543 1543 1543 1544 1545
1523 1525 1523 1521 1523 1525 1526 1527 1529 1529 1530 1531 1531 1531 1532 1532 1532 1532 1532 1532 1532 1533 1534 1534 1534 1536 1537 1538 1539 1540 1541 1542 1542 1542 1542 1542 1542 1542 1541 1541 1541 1541 1541 1541 1540 1539 1538 1538 1539 1539 1540 1541 1542 1543 1543 1543 1543 1543 1543 1543 1543 1545 1546
1523 1526 1524 1521 1523 1526 1526 1528 1529 1529 1530 1531 1531 1532 1532 1532 1532 1533 1532 1533 1533 1533 1533 1534 1535 1535 1536 1538 1539 1540 1541 1542 1542 1542 1543 1543 1542 1543 1543 1542 1543 1542 1542 1541 1540 1539 1539 1539 1539 1540 1541 1541 1542 1542 1543 1543 1543 1543 1543 1543 1543 1544 1545
1524 1524 1523 1523 1525 1527 1527 1528 1529 1530 1530 1531 1532 1532 1533 1533 1533 1533 1533 1533 1534 1533 1534 1535 1535 1535 1536 1537 1538 1539 1541 1541 1541 1542 1542 1542 1543 1544 1544 1544 1544 1543 1542 1542 1541 1540 1540 1539 1539 1540 1541 1541 1542 1542 1543 1543 1543 1543 1543 1543 1543 1544 1544
1526 1524 1523 1523 1526 1528 1529 1528 1529 1530 1531 1531 1532 1532 1533 1533 1534 1534 1534 1534 1534 1534 1534 1535 1535 1536 1536 1537 1538 1539 1540 1540 1541 1541 1542 1542 1544 1544 1544 1545 1544 1543 1543 1543 1542 1542 1541 1540 1540 1541 1541 1541 1542 1542 1543 1543 1543 1543 1542 1542 1543 1544 1544
1523 1522 1522 1523 1524 1526 1527 1528 1529 1530 1530 1531 1531 1532 1533 1534 1534 1534 1534 1534 1534 1534 1535 1535 1536 1536 1536 1537 1538 1538 1539 1540 1540 1541 1541 1542 1543 1544 1544 1545 1544 1544 1544 1544 1543 1543 1543 1542 1542 1541 1541 1542 1542 1542 1543 1543 1544 1543 1542 1541 1542 1542 1543
1519 1520 1522 1522 1523 1525 1526 1528 1528 1529 1529 1530 1531 1532 1532 1533 1534 1534 1534 1534 1534 1535 1535 1535 1536 1536 1537 1537 1538 1538 1538 1539 1539 1540 1541 1542 1542 1544 1544 1544 1545 1545 1545 1544 1545 1545 1544 1544 1543 1543 1542 1542 1542 1543 1543 1544 1544 1544 1543 1543 1542 1542 1542
1518 1520 1521 1522 1523 1524 1526 1527 1528 1528 1529 1530 1531 1532 1533 1533 1533 1534 1534 1534 1534 1535 1535 1535 1536 1536 1537 1537 1537 1537 1538 1538 1539 1540 1541 1541 1542 1543 1544 1544 1545 1545 1545 1545 1546 1546 1545 1545 1545 1544 1544 1543 1543 1543 1543 1544 1544 1545 1545 1545 1544 1543 1543